GEFSMA_500_meanwind_072.txt.gz
Wind_Speed
14 13 12 12 12 12 12 12 13 14 14 16 18 19 20 20 19 18 18 18 18 18 19 20 20 20 20 20 21 21 21 21 21 22 22 22 23 23 24 24 25 25 25
15 14 14 14 14 14 14 14 15 16 17 18 19 20 21 21 22 21 21 21 21 21 22 22 22 23 23 23 23 24 24 24 24 25 25 25 26 26 27 28 28 28 28
17 16 16 16 16 16 17 17 18 18 19 21 22 22 23 23 23 24 24 24 24 24 25 25 25 26 26 26 26 27 27 28 28 29 29 29 30 30 30 31 31 31 31
19 18 17 17 18 19 19 19 20 20 20 22 24 25 26 25 25 26 26 27 27 27 27 28 28 28 29 29 29 30 31 31 32 32 33 33 34 34 34 35 35 36 36
19 18 18 18 19 19 20 20 21 22 22 23 24 25 26 27 26 26 27 27 28 29 29 30 30 31 32 32 33 33 34 34 35 35 37 38 38 38 39 40 40 40 40
19 19 18 19 19 20 20 21 22 22 23 24 25 25 26 27 27 26 27 27 28 29 31 32 32 33 34 35 35 36 37 38 39 40 40 41 42 43 43 44 44 44 44
18 19 18 19 19 21 22 23 24 24 25 26 26 27 27 27 27 27 28 28 29 30 32 33 35 36 36 37 38 39 40 41 42 44 45 46 47 47 48 48 48 49 49
19 19 20 20 21 23 24 25 25 25 26 26 27 27 27 29 29 29 30 30 31 32 33 34 36 37 38 39 41 41 43 44 46 48 49 50 50 51 52 53 53 54 54
20 21 22 21 22 23 24 24 26 27 26 25 26 27 27 28 28 30 31 32 32 34 36 37 39 40 41 42 43 45 47 49 50 51 53 54 55 55 57 57 58 58 58
23 23 23 22 23 23 23 24 24 24 25 26 27 28 29 30 31 31 33 34 36 37 38 40 42 43 45 47 48 50 51 52 54 55 56 58 59 60 60 60 61 62 62
24 23 23 23 23 23 24 24 24 25 26 28 30 31 32 33 33 34 35 37 39 40 42 43 45 47 49 51 52 54 55 56 57 58 58 60 61 62 62 63 63 64 65
23 24 25 24 24 24 24 25 26 26 28 30 31 32 33 34 35 37 39 40 41 43 45 46 47 49 52 54 55 56 57 58 59 60 61 62 63 64 64 65 65 65 66
24 25 26 26 26 26 26 26 28 29 31 32 32 33 34 36 38 40 42 44 46 47 48 48 49 52 54 55 57 58 59 60 61 62 64 65 65 65 65 65 65 66 67
27 26 27 28 29 29 30 31 32 33 34 35 35 37 38 40 41 43 45 46 48 50 51 52 53 54 56 56 57 59 60 61 61 62 63 64 64 64 64 65 66 67 67
29 29 30 31 32 33 34 34 35 36 37 38 39 40 41 43 44 45 46 48 49 51 53 54 56 56 56 56 56 57 59 59 60 61 62 63 63 62 62 63 63 62 63
31 32 33 34 36 37 37 38 39 39 40 41 42 42 43 44 46 47 48 50 52 53 55 55 55 54 55 55 55 56 57 57 58 58 58 57 57 57 57 56 56 57 57
35 36 37 38 39 39 39 40 41 41 41 42 42 43 44 45 46 47 49 50 52 53 53 53 54 54 55 55 56 56 56 55 55 54 53 53 52 52 51 52 51 51 50
38 39 40 41 40 40 40 41 41 41 42 42 43 43 44 45 46 46 47 48 48 49 49 49 50 50 50 51 51 51 50 50 50 49 48 48 48 47 47 46 46 45 44
40 40 40 40 40 40 40 40 40 40 41 41 42 42 43 44 44 45 44 44 44 44 44 45 44 45 45 45 46 45 45 44 43 43 43 43 42 41 41 40 40 40 40
39 39 39 39 39 39 39 39 39 40 40 40 40 41 41 41 41 41 42 42 42 42 41 40 40 40 40 40 40 39 39 38 38 38 37 37 36 36 36 36 36 36 36
38 38 37 37 37 37 38 38 38 38 38 38 39 39 38 38 38 39 39 38 37 36 36 36 36 35 35 34 33 33 33 32 32 31 32 31 31 31 31 31 31 32 32
36 35 35 35 35 35 35 35 35 36 35 35 35 35 35 35 34 34 33 33 32 31 31 31 29 28 27 27 26 26 25 25 25 25 26 26 26 26 27 27 27 28 28
32 31 31 32 32 33 33 33 33 33 32 32 31 31 31 30 29 29 28 27 26 26 25 24 24 23 22 22 22 22 22 22 22 22 22 23 23 23 24 24 24 24 24
29 29 29 30 30 31 31 30 30 29 28 28 28 27 26 25 23 22 21 21 21 20 19 19 18 17 17 18 18 19 19 20 20 19 20 21 21 22 22 22 22 22 22
28 28 29 29 29 28 28 27 25 25 24 24 23 22 21 20 19 19 19 18 17 17 16 15 15 15 15 16 17 18 18 18 19 19 20 20 21 21 21 20 21 21 21
27 27 27 27 26 24 23 22 22 22 21 20 19 18 17 17 16 16 16 16 15 15 15 15 16 16 16 16 17 18 18 18 19 19 19 20 20 20 20 20 20 21 21

GEFSMA_500_meanwind_078.txt.gz
Wind_Speed
18 18 18 17 17 17 16 16 15 15 15 14 14 14 14 15 15 16 17 18 18 19 19 20 20 20 20 21 21 21 22 22 23 23 23 24 25 26 26 26 26 26 26
19 20 19 20 19 19 18 17 17 17 17 17 17 17 17 17 18 18 19 19 20 21 22 22 23 23 23 23 24 24 25 25 26 26 26 27 28 28 29 29 29 29 30
22 22 22 21 21 21 20 20 19 19 19 18 18 19 19 19 20 21 21 21 22 23 24 24 25 26 26 26 26 27 27 28 29 29 30 30 31 31 32 32 32 33 33
23 23 23 22 22 22 23 22 21 21 21 20 20 20 21 21 21 22 22 23 24 24 25 25 26 27 28 28 29 29 30 31 32 32 33 34 35 35 36 36 37 37 38
24 24 24 24 23 23 24 23 23 22 22 21 21 21 21 22 22 23 23 24 25 25 25 26 27 28 29 30 31 32 32 33 35 36 37 37 38 39 40 41 41 41 42
25 25 25 25 26 25 25 24 24 24 24 23 23 23 23 23 24 25 26 26 26 26 27 28 29 30 31 32 34 35 35 36 37 39 39 40 41 43 44 44 44 45 46
27 27 26 26 27 27 26 25 26 26 26 26 26 26 25 26 27 28 28 29 29 29 29 30 32 33 33 35 36 37 38 39 41 41 42 44 45 46 47 48 49 50 50
29 28 28 27 26 27 26 26 27 27 27 28 27 28 29 29 29 30 31 32 32 33 33 34 35 36 37 37 38 39 41 42 45 46 46 47 48 49 50 52 52 53 54
28 27 26 25 24 25 25 24 25 26 27 27 27 28 29 30 30 30 31 32 34 35 36 36 37 38 39 41 42 43 45 46 47 49 50 51 53 53 53 54 55 55 57
27 26 24 24 24 23 23 24 25 25 26 27 28 29 30 30 31 31 33 34 35 36 38 39 40 41 43 45 45 46 47 49 51 53 53 55 55 56 57 57 58 58 59
27 26 24 23 23 23 23 24 24 24 25 27 29 30 31 31 33 34 36 37 38 39 40 42 43 44 45 47 48 49 50 52 53 55 56 57 57 57 58 59 60 60 61
26 25 24 23 22 23 23 23 24 25 26 27 28 30 32 33 35 37 38 39 40 42 44 45 45 46 47 49 51 52 53 55 56 57 58 58 59 59 59 60 60 60 61
25 23 22 22 23 24 24 23 24 26 28 29 31 32 34 35 37 38 40 41 43 44 46 47 48 49 50 52 53 54 55 55 56 56 57 58 59 60 60 60 61 62 63
22 21 22 22 23 23 24 25 27 28 29 31 33 34 36 38 39 40 42 44 45 47 48 49 50 51 53 54 54 54 54 54 55 56 57 58 58 58 59 59 60 60 60
19 21 22 23 24 25 26 28 29 30 32 34 35 37 39 40 41 42 43 45 46 47 49 50 51 52 53 53 53 54 54 54 55 55 55 55 54 55 55 56 56 57 57
21 22 22 23 25 27 28 30 31 33 35 36 37 38 39 41 42 43 44 46 47 48 48 50 51 52 53 53 53 53 53 53 53 53 53 53 53 53 53 54 54 54 55
23 24 25 26 28 30 32 33 34 36 37 38 38 39 40 41 42 44 45 46 47 47 48 49 50 50 50 50 51 51 50 50 50 50 50 50 50 49 49 49 50 51 52
25 27 28 30 32 33 34 35 36 36 37 38 39 40 41 42 43 44 44 45 45 46 47 47 47 48 48 48 48 48 47 47 46 46 46 45 44 44 43 44 45 46 46
29 30 32 33 33 34 35 35 36 36 37 38 39 40 40 41 42 42 43 43 44 44 44 44 44 44 44 44 43 43 43 43 42 41 39 38 38 38 38 39 39 39 39
30 32 33 33 33 34 34 35 35 36 36 37 38 39 39 40 40 40 40 40 40 40 40 40 40 40 40 39 39 38 38 37 36 35 34 34 33 33 33 33 33 34 34
30 30 31 32 32 33 34 34 34 35 36 36 37 37 37 37 37 37 37 37 37 36 36 36 35 35 34 33 33 32 31 31 30 29 29 28 28 28 28 28 28 28 28
30 30 31 31 31 31 32 33 33 34 34 35 35 34 34 34 34 33 33 33 32 31 30 30 29 29 28 27 27 26 26 25 25 24 24 24 24 24 23 23 24 24 25
28 28 28 29 29 30 31 31 31 32 32 32 32 31 30 30 29 28 28 27 27 26 26 26 25 25 24 24 23 23 23 22 22 21 21 22 22 21 21 21 22 24 24
27 27 28 29 29 30 30 30 30 30 29 28 28 27 26 26 24 24 23 23 23 22 22 21 21 21 20 20 20 20 20 20 20 19 19 20 20 19 20 21 22 22 23
25 26 27 27 27 28 27 27 26 25 25 24 23 23 22 21 21 21 20 20 20 20 19 19 19 19 18 18 18 18 19 19 19 18 18 17 17 18 19 20 21 21 21
23 23 24 24 23 22 22 21 21 20 20 20 20 19 19 19 19 19 18 19 19 18 18 18 17 18 17 17 17 18 18 18 17 16 16 16 16 17 18 19 20 20 20

GEFSMA_500_meanwind_084.txt.gz
Wind_Speed
21 21 21 20 20 19 19 19 19 19 18 18 18 18 18 18 18 17 17 17 17 17 17 18 18 18 18 19 20 20 21 22 23 23 23 24 24 24 25 25 25 26 26
22 22 22 22 22 21 21 21 21 21 21 21 21 21 21 21 20 20 20 19 19 19 20 19 20 20 21 22 22 23 24 24 25 25 26 27 27 27 28 28 29 30 30
24 24 24 24 24 23 23 23 23 22 22 23 23 23 23 22 22 23 23 22 22 22 22 22 22 22 23 23 24 25 26 27 27 28 28 29 30 31 31 32 32 32 33
25 25 26 26 25 25 25 25 25 24 24 24 24 24 25 25 24 25 25 24 24 24 23 24 24 25 26 26 27 28 28 28 29 30 31 32 32 33 34 34 35 35 36
27 27 28 28 27 27 27 27 26 26 26 26 26 27 27 27 27 27 26 26 26 26 26 26 27 28 29 29 29 30 31 32 33 34 34 35 36 37 37 38 39 39 41
27 28 28 28 29 29 28 29 28 28 28 28 28 28 29 29 30 29 29 28 28 29 29 29 30 31 31 32 32 32 33 34 35 36 37 38 40 40 41 42 43 44 45
28 29 29 29 30 31 31 30 31 30 30 30 30 30 30 31 32 31 31 32 32 32 32 33 33 34 34 35 35 36 36 38 39 40 40 41 43 44 45 47 48 48 48
31 30 30 30 30 32 32 32 32 31 30 30 31 32 32 32 33 33 34 35 35 35 36 36 37 37 37 38 38 39 40 41 42 43 45 45 46 47 49 50 51 51 51
31 32 32 32 32 32 33 33 32 32 32 31 31 32 32 33 35 34 35 36 37 37 38 39 38 39 40 41 41 42 43 44 46 46 47 48 49 50 51 52 53 54 55
29 31 32 33 33 33 32 32 32 32 32 33 32 32 32 33 34 35 36 37 37 38 39 40 41 42 42 43 44 45 46 47 48 49 50 51 52 52 53 54 55 56 56
29 31 31 32 32 33 33 33 33 32 33 33 33 33 33 34 36 37 37 37 39 40 41 41 43 44 45 46 47 48 49 49 50 51 52 53 54 54 55 56 56 57 57
26 28 30 31 32 33 34 34 32 32 33 33 33 34 34 34 35 36 38 39 40 41 42 43 45 46 48 48 49 50 51 52 52 53 54 54 55 55 56 57 57 58 58
24 26 28 30 30 31 32 32 32 32 31 32 32 33 33 34 35 36 38 39 41 42 44 45 47 48 49 50 51 52 53 53 54 54 55 55 56 56 57 58 57 58 58
22 24 26 27 29 30 30 30 30 30 31 32 34 34 34 35 36 38 39 41 43 45 46 47 48 50 51 52 53 53 54 54 55 55 56 56 56 56 56 57 58 57 57
22 23 25 25 26 27 28 28 29 30 32 33 34 34 35 36 38 40 41 43 45 47 48 49 50 52 53 53 54 54 54 55 55 55 55 54 54 54 54 55 56 56 56
20 21 24 24 24 26 26 26 27 29 31 33 34 34 36 38 40 42 43 44 46 48 49 50 51 52 53 53 53 54 54 54 53 53 52 52 52 52 52 52 52 53 53
19 20 22 22 23 24 26 27 29 30 32 33 34 36 39 41 42 43 44 46 47 48 49 50 51 51 51 51 51 52 51 50 50 49 49 49 49 49 49 49 48 48 48
21 21 22 23 25 26 28 30 31 32 34 36 37 39 41 42 43 44 45 46 46 47 48 48 49 49 49 48 49 48 48 47 47 46 46 46 45 45 44 43 42 42 42
23 24 25 26 27 29 30 32 33 35 36 38 39 40 41 42 43 44 44 45 45 46 46 46 46 46 45 45 44 44 44 43 42 41 40 40 39 38 37 36 36 36 36
25 26 27 28 30 31 33 34 35 36 37 38 39 40 40 41 42 42 43 43 43 43 43 42 41 41 40 40 39 38 37 36 36 35 34 33 33 32 31 31 30 29 30
27 28 29 30 30 32 33 34 34 35 36 37 37 38 39 40 40 40 40 40 39 38 37 37 36 35 35 34 34 33 33 32 32 31 30 29 28 28 27 27 27 26 27
27 28 29 29 30 31 32 33 33 34 35 35 36 36 36 37 37 36 36 34 33 33 32 31 31 31 31 30 30 29 28 28 27 26 26 26 26 25 25 25 25 25 26
27 28 28 29 30 30 31 32 32 33 33 33 33 33 32 32 31 31 30 29 28 28 27 27 27 27 27 27 26 25 25 24 24 23 23 22 22 21 22 22 23 24 24
26 27 27 28 28 28 29 29 30 30 30 30 29 28 27 26 25 25 24 25 24 24 25 25 25 24 24 23 23 22 22 22 21 20 20 19 19 20 21 21 21 22 22
25 25 25 26 26 26 27 27 27 26 26 25 24 23 23 23 22 22 22 22 22 22 22 23 23 22 22 22 21 20 20 19 19 18 18 18 18 19 19 19 20 21 21
23 23 24 24 24 24 24 24 23 23 22 22 22 22 22 21 20 20 20 20 21 21 21 21 21 20 19 19 18 18 17 17 17 16 16 17 17 18 18 19 20 20 20

GEFSMA_500_meanwind_090.txt.gz
Wind_Speed
26 25 23 22 22 22 21 21 20 19 19 19 19 19 19 19 18 17 16 17 17 17 17 17 17 17 17 17 17 18 18 18 18 19 21 22 22 23 23 24 25 25 26
26 27 24 23 23 22 22 22 22 21 21 21 21 21 21 21 21 20 19 20 19 19 19 19 19 19 19 19 19 20 20 21 22 22 23 24 25 25 25 26 26 27 27
26 25 25 24 24 24 24 23 23 23 23 22 22 22 22 23 23 23 22 22 22 22 22 22 22 22 23 22 22 23 24 24 25 26 27 28 28 29 29 29 30 30 30
25 25 25 24 25 25 25 25 25 24 24 24 24 24 25 25 25 25 25 25 25 25 25 26 26 26 25 25 25 26 26 27 28 29 29 30 31 32 33 33 34 33 34
25 25 26 25 26 26 26 26 26 26 26 26 26 26 27 27 27 27 27 27 28 27 27 28 28 28 28 28 29 30 30 31 31 32 32 33 33 34 35 36 38 38 38
24 26 25 26 26 26 27 27 28 28 28 28 28 27 28 28 28 29 29 30 30 29 30 31 31 31 32 32 33 33 34 34 35 35 36 36 36 37 38 38 39 40 41
25 25 25 27 27 27 29 30 30 30 30 29 29 29 30 29 30 31 31 32 33 32 33 33 34 34 34 35 36 36 37 37 38 39 40 40 41 41 41 42 43 44 45
23 24 26 27 28 28 29 30 30 31 31 31 32 31 31 30 31 32 33 34 34 35 35 36 36 36 37 38 38 39 40 40 41 42 42 42 43 43 44 45 46 47 48
23 26 26 27 29 29 30 31 32 31 32 32 31 32 32 32 32 32 33 34 35 36 37 37 38 40 40 39 40 41 41 42 43 43 44 45 45 45 46 47 48 49 50
23 24 25 26 27 28 29 30 31 32 32 33 33 34 34 35 35 35 36 37 37 38 39 39 40 41 42 42 42 43 44 44 45 45 46 46 47 47 48 49 50 51 52
25 25 26 26 27 29 29 30 32 33 33 34 35 36 36 37 38 37 38 38 39 40 41 41 42 42 43 43 44 44 45 46 47 48 49 49 49 50 51 52 53 53 54
26 27 28 27 27 29 31 32 33 35 35 35 35 37 37 38 38 39 40 40 41 41 42 42 41 42 43 43 44 45 46 47 48 49 50 51 51 52 53 54 54 55 55
27 28 29 29 29 30 30 32 33 34 34 34 35 36 37 37 38 39 41 41 40 40 41 40 41 41 42 43 44 46 47 48 49 50 51 52 53 53 53 54 54 54 55
27 28 28 28 29 30 30 31 32 32 33 34 35 36 37 37 38 38 39 40 40 40 40 40 41 42 44 45 47 47 49 50 51 52 52 53 53 53 53 53 53 53 54
26 26 26 27 27 27 28 29 29 30 32 33 34 35 36 36 36 36 37 39 41 41 41 42 43 44 46 47 48 49 49 51 52 52 52 51 51 51 51 51 51 51 51
27 26 26 26 25 25 26 26 27 29 30 30 31 32 33 33 34 35 37 39 40 41 42 43 44 45 47 48 49 49 50 50 50 50 50 49 48 48 48 47 47 47 48
27 26 26 27 26 25 26 27 27 28 29 30 30 31 32 33 34 36 37 38 40 42 43 44 45 47 48 48 49 48 48 47 47 46 45 45 45 44 44 43 42 42 42
27 27 27 27 26 26 26 27 27 28 29 30 31 32 33 34 36 37 38 40 41 43 44 45 45 45 46 46 46 46 45 44 42 42 41 41 40 39 39 38 37 37 36
27 27 27 26 26 27 27 27 28 29 31 31 32 33 34 36 37 38 39 40 42 42 43 43 43 43 43 43 42 41 40 39 39 37 36 36 36 35 34 34 33 33 32
28 28 27 27 28 28 28 29 29 30 31 32 34 34 35 37 37 38 39 40 40 41 41 41 40 39 38 37 36 35 35 34 34 33 32 32 31 31 30 30 29 29 29
28 28 28 28 29 29 29 29 29 30 31 32 33 34 35 36 36 37 37 37 37 37 37 36 35 34 33 32 32 32 31 30 30 29 29 27 27 26 26 26 27 27 27
27 27 27 27 27 28 28 29 29 30 31 32 32 33 34 34 35 35 35 35 34 32 32 31 30 29 29 29 29 28 27 27 26 25 25 24 23 23 23 24 25 25 25
25 25 25 25 25 26 26 27 28 29 30 31 31 31 32 32 32 32 31 30 29 28 27 27 26 26 26 26 26 26 25 24 23 22 22 22 21 21 21 22 22 23 24
24 24 24 24 25 26 27 27 28 29 29 29 30 30 29 29 29 27 27 27 26 26 25 25 25 25 24 24 23 23 22 21 20 20 20 20 20 20 20 21 22 23 24
22 23 23 24 24 25 26 27 27 27 27 27 27 27 27 26 26 25 25 25 25 24 24 24 23 23 22 22 21 20 19 18 18 18 18 18 18 18 18 19 20 22 22
20 21 21 22 22 23 24 24 24 25 25 25 25 24 24 24 24 23 23 23 23 23 22 22 22 21 20 20 19 18 18 18 18 17 17 17 17 17 17 18 19 19 19

GEFSMA_500_meanwind_096.txt.gz
Wind_Speed
28 28 27 26 25 24 22 22 21 21 20 19 19 18 17 17 17 17 17 17 17 17 16 15 15 15 15 15 15 15 16 16 17 17 18 19 20 20 21 21 21 22 22
29 29 28 27 26 25 23 23 23 22 21 20 20 19 18 19 18 19 19 19 19 19 19 18 18 18 18 18 18 19 19 19 20 20 21 22 22 23 23 24 24 25 26
30 30 30 29 26 26 25 24 24 24 22 21 21 20 20 20 20 20 20 21 21 21 21 21 21 21 20 20 21 21 21 22 22 23 24 25 25 26 27 27 28 28 29
30 29 29 29 28 28 26 25 24 24 23 23 23 23 22 21 21 22 22 22 23 22 22 23 23 23 23 23 23 24 24 24 25 26 27 27 28 29 30 30 31 31 32
29 29 27 28 27 27 26 25 25 25 25 24 24 24 23 23 22 22 22 23 24 24 25 25 25 25 25 26 26 27 28 28 28 29 30 31 31 32 33 34 34 35 35
26 25 25 26 25 25 25 24 25 24 25 25 25 25 24 24 24 24 24 24 25 25 26 26 27 27 27 28 29 29 30 31 31 32 33 33 34 35 36 37 37 38 38
22 23 23 24 23 23 25 24 25 25 25 25 26 26 26 25 26 25 26 26 26 27 27 27 28 28 29 29 30 31 32 33 34 34 35 36 37 38 38 39 40 40 41
22 22 23 24 23 22 23 24 24 25 26 26 26 27 28 28 29 29 29 29 29 29 29 29 29 30 31 32 32 33 34 35 36 37 38 39 40 40 40 41 42 42 43
22 21 22 23 22 22 22 23 24 25 25 26 27 29 30 30 30 30 30 31 30 30 30 31 32 33 34 35 36 36 37 38 39 40 41 41 41 42 42 42 43 44 45
20 20 19 19 20 20 22 23 24 25 26 26 28 29 30 30 31 32 31 31 31 31 32 33 34 36 37 38 38 38 39 39 40 40 40 41 42 42 43 44 44 45 46
19 18 17 16 18 18 20 21 23 25 26 27 28 29 30 31 32 33 34 33 33 34 34 35 36 37 39 39 39 39 39 40 40 41 41 42 43 44 45 45 46 47 48
18 17 17 18 18 18 19 20 21 22 24 26 27 29 31 31 32 33 34 34 35 35 36 37 38 39 39 39 39 39 39 40 41 42 42 43 44 45 46 47 48 48 49
20 20 19 19 20 20 21 21 22 23 25 26 28 29 30 31 31 32 32 33 34 35 36 37 38 38 38 38 39 39 40 41 41 42 43 44 45 46 47 48 48 49 50
22 23 22 22 21 21 22 22 23 24 24 25 26 27 29 30 30 30 32 33 34 36 36 36 37 37 38 38 38 39 40 41 41 43 44 45 46 47 47 47 48 48 49
21 21 22 21 21 22 22 22 23 23 24 25 26 27 28 29 30 31 32 32 33 33 34 34 35 35 36 37 38 39 40 42 43 44 45 45 46 46 46 47 47 47 47
22 21 20 21 22 22 21 22 23 24 25 25 26 27 27 28 28 30 30 30 31 31 32 33 35 36 37 37 39 40 42 43 44 44 44 45 45 45 45 45 45 45 45
22 21 20 20 21 21 22 22 22 22 23 23 24 25 26 26 28 28 29 29 30 31 33 34 35 36 37 38 39 41 42 42 42 43 43 42 42 42 42 42 41 41 40
21 21 21 21 21 21 22 22 23 23 23 24 24 25 26 27 28 28 28 29 30 32 33 34 34 35 37 38 39 40 40 40 40 39 39 39 39 38 38 37 36 35 34
21 21 21 21 21 21 22 22 23 23 24 24 25 25 26 27 28 28 29 30 31 32 33 34 34 36 37 37 37 37 37 36 36 36 35 35 34 33 32 31 31 30 30
21 21 21 21 21 21 22 22 23 24 25 25 25 26 26 27 28 29 30 31 32 32 33 34 34 35 35 35 34 34 33 32 32 32 32 31 30 29 28 28 27 28 27
21 21 21 21 22 23 23 24 24 25 25 25 26 26 27 28 29 29 30 31 31 32 32 32 32 32 32 31 30 30 29 29 29 28 28 27 26 26 25 25 25 25 24
20 21 21 21 21 22 22 23 23 24 24 25 25 26 26 27 28 28 29 29 30 30 30 30 30 29 28 28 27 27 27 26 25 24 24 23 23 23 23 22 22 22 22
18 19 19 19 19 19 20 21 22 22 23 24 25 25 26 27 27 27 28 28 28 28 28 27 27 27 27 26 25 25 24 23 23 22 22 21 21 21 20 20 20 20 21
17 17 17 18 19 20 20 21 21 22 23 23 24 25 25 26 26 25 25 25 25 25 25 25 25 25 25 24 23 23 22 21 21 20 20 19 19 19 19 19 18 19 19
17 17 17 18 18 19 20 19 19 20 21 22 22 23 24 24 24 24 23 23 23 23 23 23 23 23 23 22 21 21 20 20 19 19 18 18 18 17 17 17 17 17 18
16 16 16 17 16 17 17 18 18 19 19 19 20 21 21 22 22 22 21 21 21 21 22 22 21 21 21 20 20 19 19 18 18 17 17 17 16 15 15 15 15 16 16

GEFSMA_500_meanwind_102.txt.gz
Wind_Speed
26 26 25 25 25 24 23 22 22 21 20 20 19 19 19 19 19 18 18 18 17 17 17 16 16 16 15 15 15 15 15 15 15 15 16 16 17 17 18 18 19 20 21
27 27 27 27 27 26 26 25 24 23 22 21 20 20 21 21 20 19 19 19 19 19 19 18 18 18 18 17 17 17 17 18 18 18 18 19 19 20 21 21 22 23 24
28 28 29 29 29 28 28 27 26 25 24 23 22 22 22 22 21 21 21 21 21 21 21 20 20 20 20 20 19 19 19 20 20 20 21 21 22 23 24 25 26 26 28
30 29 29 31 31 30 30 29 28 28 27 25 24 23 24 24 23 23 22 23 22 23 23 22 22 22 22 22 22 21 21 22 23 23 24 24 25 26 27 27 28 29 31
31 30 29 30 31 31 30 30 29 29 28 27 25 25 25 25 25 25 24 24 24 24 24 24 24 24 24 24 24 24 25 25 26 26 27 27 28 29 30 31 32 33 33
30 30 30 31 30 31 31 31 30 29 28 28 27 27 27 26 27 27 26 25 25 25 25 25 26 26 26 26 27 27 28 28 28 29 30 30 31 32 32 33 34 35 36
29 30 30 30 30 29 30 30 30 29 28 28 28 28 27 27 27 27 27 27 28 27 27 28 28 28 28 29 29 29 29 30 31 31 32 33 34 34 35 36 37 38 39
27 29 29 28 28 28 28 28 29 29 28 29 28 28 28 29 28 28 28 29 29 29 29 30 30 30 30 31 32 32 32 33 33 34 35 36 36 37 37 38 38 39 40
27 27 27 28 28 27 26 26 27 29 28 28 28 29 29 29 29 29 30 31 32 32 32 31 32 32 33 34 34 34 34 35 36 36 37 37 38 38 38 39 40 41 42
25 26 26 25 26 27 26 25 26 26 27 27 28 29 29 29 29 30 30 31 32 33 33 33 33 34 34 35 36 36 35 36 37 38 38 38 38 39 40 41 41 42 42
24 24 24 23 23 24 25 25 25 25 26 26 26 27 28 28 29 30 31 32 32 33 34 35 35 34 35 36 36 37 37 37 37 37 37 38 39 40 41 41 42 43 44
24 23 23 23 22 22 22 23 23 22 23 24 25 27 28 28 29 30 31 32 33 33 34 34 34 34 35 37 37 37 37 36 37 37 38 39 40 41 41 42 43 44 46
23 22 22 22 21 21 21 21 22 23 23 23 25 26 27 28 28 28 30 31 32 32 33 34 34 34 35 35 35 35 35 36 37 38 39 39 40 41 42 43 44 45 46
23 23 22 22 21 21 21 21 21 22 23 24 25 26 26 27 28 28 29 30 30 31 31 31 32 33 34 34 35 35 36 36 37 38 39 41 42 43 44 44 46 47 47
23 22 22 22 22 21 22 23 22 22 23 25 26 27 27 27 28 29 30 30 30 30 30 30 31 32 34 35 35 36 36 37 38 40 41 42 42 43 44 45 46 46 46
21 21 20 21 21 20 21 23 23 23 23 24 25 26 27 27 28 29 30 30 30 30 31 31 32 33 35 36 37 38 38 39 40 41 41 42 42 43 43 44 44 44 43
20 20 20 20 21 21 21 22 22 23 23 24 25 26 27 27 28 28 29 29 30 31 32 33 34 34 36 37 38 39 39 40 40 40 41 41 42 42 42 41 41 40 39
20 19 19 20 21 22 22 22 22 23 23 24 24 25 26 27 27 28 29 30 30 31 32 33 34 35 36 37 38 39 39 39 40 40 40 40 40 39 38 37 36 36 35
19 18 19 20 21 22 22 22 22 22 22 23 24 24 25 26 28 29 29 30 30 31 32 33 34 35 37 37 38 38 39 39 39 39 38 38 37 35 34 33 33 32 32
19 19 20 21 21 21 21 21 22 22 23 24 24 25 26 27 27 28 28 29 30 31 32 34 35 36 36 37 37 37 37 37 37 37 36 34 33 32 31 30 29 29 28
19 20 21 21 22 22 22 22 22 23 24 24 25 26 26 27 27 28 29 30 31 32 32 33 34 34 35 35 35 35 36 35 35 34 32 31 30 30 29 28 27 26 25
20 21 21 22 22 22 22 22 23 23 24 24 25 25 26 26 27 28 29 30 31 31 31 32 32 32 33 33 33 33 33 32 32 30 29 29 28 27 26 25 24 23 23
21 21 21 21 21 22 22 22 23 23 23 23 24 24 25 25 26 27 28 29 29 29 30 30 31 31 31 31 31 30 30 29 29 28 27 26 26 25 24 23 22 22 21
17 18 18 18 19 19 19 20 20 21 21 22 22 23 24 24 25 26 27 28 28 28 28 28 29 29 29 28 28 27 27 27 27 26 25 24 23 22 21 21 21 20 20
16 16 16 17 17 17 18 18 18 19 20 20 21 22 22 23 24 24 25 25 26 26 26 27 27 27 26 26 26 25 25 24 24 23 22 22 21 20 20 19 19 18 17
14 14 14 15 16 16 16 17 17 18 19 19 20 20 21 21 22 22 22 23 23 24 24 24 24 24 23 23 23 22 22 21 21 20 19 19 18 18 17 17 16 16 15

GEFSMA_500_meanwind_108.txt.gz
Wind_Speed
27 27 26 26 25 24 23 23 22 21 21 21 21 21 21 20 20 20 20 19 19 18 18 17 17 17 16 16 16 15 15 15 15 15 15 15 15 16 16 17 17 18 18
28 28 27 27 26 25 24 23 23 23 23 23 23 23 23 23 22 22 22 21 21 20 19 19 18 18 18 18 18 18 18 18 18 18 18 19 19 19 19 20 20 21 22
28 29 29 29 28 27 26 25 24 24 25 25 25 24 24 25 25 24 24 23 22 22 21 21 20 20 20 20 20 20 20 20 20 20 21 21 22 22 23 23 24 24 25
30 31 30 29 29 28 28 28 26 26 26 27 27 27 27 26 26 26 25 24 24 23 23 23 22 22 22 22 22 22 22 22 23 23 23 24 25 25 26 26 27 28 29
30 31 31 30 30 30 30 30 30 29 28 29 29 29 28 28 27 27 27 26 26 26 25 25 25 24 24 24 24 24 24 24 25 26 27 27 28 29 29 30 30 31 32
30 30 31 31 32 32 31 32 31 30 30 30 31 31 30 29 29 29 29 28 28 27 27 26 26 26 26 26 27 27 27 27 28 29 30 31 31 32 33 33 34 35 36
30 30 31 32 31 31 32 32 32 30 31 32 32 32 31 31 31 31 31 31 30 29 29 28 29 29 29 29 29 29 29 30 31 32 33 34 34 35 36 37 38 39 39
30 31 30 31 32 32 31 31 31 30 31 32 32 33 32 32 32 32 32 32 32 32 32 31 31 32 32 32 32 32 32 33 34 35 35 36 37 38 38 39 40 40 41
30 31 30 32 32 30 30 31 30 30 29 29 30 31 32 33 33 33 33 34 34 34 34 34 34 34 34 34 34 35 35 36 36 37 38 38 39 39 39 40 41 41 42
28 29 30 30 30 31 30 30 30 30 30 29 29 30 31 33 34 34 34 33 34 34 35 35 35 36 36 37 37 37 38 38 39 39 39 40 40 41 42 42 42 43 43
28 28 29 28 29 30 30 30 29 29 29 29 30 31 32 33 33 34 34 34 34 36 36 35 34 35 36 37 37 37 38 39 40 40 40 40 40 40 42 42 42 42 43
27 28 28 28 29 29 30 29 29 29 29 29 30 30 31 32 33 32 33 34 34 34 34 34 35 36 37 37 37 38 39 39 40 40 40 41 41 41 42 42 42 42 43
27 27 28 28 29 29 29 29 30 29 30 30 29 30 30 31 32 32 32 33 34 34 35 35 34 36 36 37 37 38 39 39 39 40 40 41 41 41 42 42 43 43 44
26 26 26 27 28 28 29 29 28 28 29 29 29 29 30 31 31 31 31 31 32 33 33 34 35 35 36 37 37 37 37 38 38 39 40 41 41 41 42 43 43 44 45
25 26 25 25 25 26 27 28 27 27 28 28 29 30 30 31 32 32 32 31 31 32 33 34 35 36 36 36 37 37 38 38 39 39 40 40 41 42 42 43 43 44 45
24 25 23 22 23 25 26 26 28 27 26 27 28 29 30 31 31 32 31 31 32 32 33 34 35 36 35 35 36 37 38 39 39 40 40 41 41 42 42 42 43 43 44
23 24 23 22 23 24 25 26 27 27 27 26 26 27 27 29 30 31 32 33 34 34 34 35 36 36 36 36 37 37 38 38 39 39 41 41 42 42 42 42 42 42 41
21 22 23 23 23 24 24 25 26 26 26 25 26 26 27 28 29 30 30 31 32 33 34 34 35 37 36 36 37 38 38 39 40 40 41 41 41 41 41 40 40 39 38
21 21 21 22 22 23 23 24 24 25 25 25 25 26 28 28 28 29 29 30 31 32 33 34 34 35 36 36 37 37 38 39 40 40 40 41 40 40 38 38 37 36 35
22 22 22 21 22 22 22 23 23 24 24 24 26 26 26 27 28 28 29 30 30 31 32 33 34 35 36 36 37 37 38 39 39 39 39 38 37 36 35 34 34 33 32
21 22 22 22 22 21 21 22 22 23 24 24 25 26 27 27 27 28 29 29 30 30 31 33 34 34 35 35 36 37 37 37 37 37 36 35 34 32 32 31 31 30 29
19 20 21 21 21 21 21 21 22 23 23 23 24 25 25 26 27 27 27 28 28 29 30 31 32 33 33 34 35 35 35 34 34 33 32 31 30 29 28 28 28 27 26
17 17 17 17 18 18 19 19 19 20 21 21 22 23 23 23 24 24 25 26 26 27 28 29 29 30 31 31 31 31 31 31 30 30 29 28 27 26 26 25 24 24 24
15 14 14 15 15 15 15 16 17 17 18 19 19 20 20 21 22 23 23 24 24 25 26 26 27 27 28 28 28 28 27 27 26 25 25 25 24 24 24 23 22 22 21
13 13 13 14 14 14 14 15 15 15 16 16 17 17 18 19 19 20 20 21 22 22 22 22 23 24 23 23 23 23 23 23 22 22 22 22 22 21 21 20 20 20 20
11 11 11 11 11 11 12 12 12 13 13 14 15 15 16 17 17 18 18 19 19 19 19 20 19 19 19 19 19 19 20 20 20 20 19 19 19 19 18 18 18 18 17

GEFSMA_500_meanwind_114.txt.gz
Wind_Speed
25 25 25 25 26 26 25 24 24 25 24 24 24 23 22 22 22 21 20 20 20 19 19 19 18 18 17 17 17 17 17 16 16 16 16 16 16 16 16 17 17 18 18
26 26 26 27 27 26 26 26 26 25 26 26 26 25 24 24 23 22 22 22 22 22 21 21 21 20 20 20 19 19 19 19 18 18 18 19 19 19 19 19 20 20 20
28 28 28 28 28 27 27 27 28 27 27 27 28 27 26 25 24 23 23 24 23 23 23 23 23 23 22 22 22 21 21 21 21 21 21 21 21 21 21 21 22 23 23
30 30 29 30 29 29 29 29 29 28 28 28 28 27 27 26 26 25 24 24 24 24 24 24 24 24 24 24 23 23 22 22 23 23 23 23 23 23 24 24 25 26 27
30 31 31 32 32 31 30 31 31 30 28 29 29 28 27 27 27 27 26 26 26 25 24 24 25 25 25 25 25 25 24 25 25 25 25 25 26 26 27 28 28 29 30
31 32 32 32 32 31 32 31 32 31 30 29 30 29 29 29 28 28 28 28 27 26 25 25 26 27 27 27 27 27 28 28 28 27 26 27 28 28 29 30 30 31 32
32 32 32 32 32 31 31 30 30 31 31 30 29 30 31 31 30 29 30 29 28 28 28 28 28 28 28 29 29 29 29 30 30 30 31 31 31 31 31 31 33 34 35
32 32 32 32 32 32 31 30 29 30 30 31 31 31 31 32 31 31 32 32 31 31 30 31 30 31 31 32 31 31 31 32 33 33 34 34 34 33 34 35 36 36 36
32 32 32 31 31 31 31 31 31 31 31 32 33 33 32 31 31 32 32 32 32 32 33 33 33 33 33 34 34 34 34 34 35 35 36 37 36 36 36 37 37 38 39
32 32 31 32 31 31 30 30 31 32 32 33 33 33 33 32 32 33 32 32 33 34 34 34 34 34 34 35 36 36 36 37 37 37 38 38 37 37 37 38 39 39 40
31 31 32 31 31 30 30 31 32 32 32 32 33 32 32 32 32 32 31 31 32 34 34 34 34 35 35 36 36 37 38 37 37 38 39 39 38 39 39 39 40 40 41
29 30 30 31 31 30 30 30 31 31 32 32 32 32 32 33 32 32 31 31 32 32 33 34 35 35 36 36 37 37 38 38 38 38 39 39 39 39 39 40 40 41 41
29 28 29 29 29 30 29 30 30 31 30 31 31 32 32 32 32 31 31 30 31 32 33 34 35 36 35 35 35 36 36 36 36 37 38 37 37 38 39 39 40 40 41
28 28 28 28 28 28 28 28 28 29 29 29 29 29 30 30 30 30 30 31 32 32 33 33 34 33 33 33 33 34 35 34 35 36 36 36 37 38 39 39 40 41 41
28 28 27 27 27 27 27 27 28 27 27 27 28 28 29 29 30 30 30 30 30 31 31 31 31 31 32 32 32 33 34 34 35 34 35 36 37 38 38 38 38 40 41
26 27 27 27 27 27 26 26 27 27 27 27 27 27 28 27 28 29 28 28 28 29 30 29 29 28 29 31 32 33 33 34 34 34 35 36 36 36 37 38 38 40 40
25 26 25 26 26 26 26 25 25 26 26 26 27 27 27 28 28 29 28 27 27 28 29 30 30 30 30 30 31 31 31 33 34 35 36 36 36 37 38 39 40 39 39
25 25 25 25 25 25 25 25 25 25 24 24 25 26 26 27 27 27 27 26 26 27 28 29 29 28 29 29 30 31 32 33 34 34 35 35 36 37 37 37 38 37 36
23 23 23 24 24 23 23 24 24 24 24 23 24 25 25 26 26 25 25 25 25 25 26 27 28 28 29 29 30 30 31 32 33 33 34 35 35 35 35 35 35 34 34
22 22 22 23 23 22 22 23 22 22 22 22 23 23 23 22 22 22 23 23 23 23 24 25 25 27 27 28 29 29 30 30 31 32 32 33 33 33 33 32 32 32 31
20 20 20 20 21 21 21 21 20 20 20 20 20 20 19 19 19 20 21 21 22 22 23 24 24 25 25 26 27 27 27 28 29 30 30 31 31 31 30 30 29 29 28
17 17 17 17 18 17 17 18 18 17 17 17 17 17 18 18 18 18 19 20 21 21 21 21 22 23 24 24 24 25 26 26 27 28 28 28 27 27 27 27 26 25 25
16 16 16 15 14 15 15 15 15 16 16 16 16 16 17 17 17 17 18 18 18 19 20 20 21 22 22 22 23 24 24 24 24 24 24 24 23 24 23 23 23 23 23
15 15 15 15 14 14 14 13 13 13 13 13 14 14 15 15 16 16 16 17 17 18 18 18 18 19 19 20 21 21 21 22 22 20 20 21 21 21 21 21 21 21 21
14 13 13 13 12 12 12 11 11 11 11 11 11 12 12 12 12 13 14 15 15 16 15 16 16 17 18 18 18 18 18 18 18 19 19 19 19 19 19 19 19 19 19
11 11 11 10 10 9 9 9 9 9 9 9 10 10 10 10 11 11 12 13 13 14 14 15 15 16 16 16 16 16 16 16 17 17 17 17 18 18 18 17 17 17 17

GEFSMA_500_meanwind_120.txt.gz
Wind_Speed
21 21 21 22 23 23 23 23 22 21 21 22 22 23 23 23 22 21 21 21 20 20 20 19 19 19 19 19 20 19 19 18 18 18 17 17 17 18 17 18 18 18 18
22 22 23 23 23 24 24 24 24 23 22 23 23 23 24 24 24 23 23 22 21 22 22 22 21 20 21 21 22 22 21 21 20 20 20 20 20 19 19 20 20 20 21
23 23 24 25 25 25 25 26 25 25 25 26 26 24 24 25 25 25 25 24 22 22 24 23 22 22 23 23 23 23 23 23 22 22 22 21 21 22 22 22 22 23 23
24 25 25 26 26 27 26 26 25 26 27 27 26 25 26 26 26 27 26 25 24 23 24 25 24 24 24 24 24 24 25 25 24 24 24 23 23 24 25 25 25 25 25
25 26 26 27 26 27 27 27 27 27 27 27 27 27 28 27 27 27 26 25 25 24 24 25 25 25 24 25 25 25 26 26 26 25 26 26 26 27 27 27 27 27 28
26 27 27 27 27 28 27 27 28 28 27 27 27 28 28 28 27 27 27 26 25 25 25 25 25 26 25 25 26 26 27 27 28 28 28 28 28 29 29 29 30 30 30
27 28 28 28 28 28 27 28 28 28 27 28 27 28 27 27 27 27 26 26 26 27 27 26 26 26 27 26 25 26 27 28 28 29 29 30 31 31 31 32 32 32 32
27 27 28 28 28 28 27 27 27 28 28 28 27 28 28 27 28 28 28 28 28 28 28 28 28 28 27 27 27 28 29 29 29 29 30 32 32 33 33 33 34 35 35
27 27 27 27 27 27 28 27 26 26 27 28 27 27 28 28 28 28 28 28 28 28 28 27 27 29 29 29 29 29 31 31 31 32 33 34 34 35 35 35 35 37 37
27 27 27 27 27 27 28 28 27 27 27 27 28 28 27 28 29 29 28 29 29 29 28 28 28 29 30 30 31 32 32 32 32 34 35 36 36 36 36 36 36 38 39
27 27 27 27 27 27 27 27 27 27 27 26 26 27 27 27 28 28 28 28 28 29 29 30 29 30 31 32 31 32 33 33 34 35 36 36 36 36 36 37 38 38 39
27 27 27 27 26 26 26 26 26 26 26 25 25 26 27 27 27 28 27 28 29 28 29 29 30 31 31 31 32 32 33 34 35 36 36 37 37 37 37 37 38 39 40
26 26 26 26 25 24 24 25 25 25 25 25 25 25 26 26 26 26 26 27 28 28 29 29 29 29 31 32 33 34 34 35 35 36 36 36 36 36 37 37 38 38 38
26 25 25 25 24 24 23 24 24 24 24 25 25 25 25 25 25 25 25 26 27 28 29 29 29 29 30 31 32 33 33 34 35 35 36 35 35 35 35 36 37 37 37
26 25 24 23 22 22 22 23 22 23 23 23 23 24 25 25 24 24 24 26 26 27 27 27 28 29 29 30 31 32 32 31 32 33 33 33 33 33 34 35 35 36 36
25 24 24 23 22 21 21 21 21 21 22 22 22 22 22 23 23 23 23 23 24 25 27 26 26 28 28 29 30 30 30 29 28 29 30 30 31 32 33 34 35 36 36
25 25 24 23 22 22 21 21 21 20 21 21 21 21 21 21 21 21 22 22 23 23 25 25 26 26 27 27 28 28 28 27 27 28 29 29 31 32 33 34 35 36 36
24 24 23 22 22 21 21 22 21 21 20 20 20 19 19 19 19 20 21 21 22 22 22 22 23 24 24 25 25 25 25 25 25 26 27 28 30 32 33 34 35 34 34
22 22 22 21 21 20 21 21 21 20 19 19 19 19 18 18 19 18 19 20 19 20 20 21 22 22 22 22 22 23 24 25 25 26 28 29 30 31 32 32 33 32 33
21 20 20 19 19 19 19 19 19 19 19 19 18 18 18 17 17 17 17 17 18 18 18 19 19 20 20 20 22 23 24 24 25 26 27 28 29 29 30 30 30 30 31
18 18 17 17 17 16 16 17 17 17 17 16 16 16 16 15 15 15 16 16 16 16 16 17 18 18 19 19 20 21 22 23 24 25 25 26 26 27 27 27 27 28 28
15 15 15 16 16 15 15 14 15 15 15 14 14 14 15 14 13 13 14 14 14 14 14 15 16 17 17 18 19 20 21 22 22 23 23 24 24 24 24 25 26 26 26
15 14 14 15 14 14 13 12 11 11 12 12 12 12 12 11 11 11 11 11 12 12 12 14 14 15 16 16 17 18 19 20 20 20 20 20 21 21 22 23 23 23 23
13 13 14 13 12 11 10 10 10 9 9 8 8 8 8 7 8 8 9 10 10 11 11 12 13 13 13 14 14 15 16 16 17 17 18 18 19 19 20 20 20 20 20
12 12 11 11 9 9 8 8 8 7 6 6 6 6 6 5 5 6 6 7 8 9 9 10 10 10 10 11 12 12 13 13 14 15 15 16 16 16 17 17 17 17 18
9 9 8 7 7 6 6 5 4 4 4 4 3 3 3 2 2 3 4 5 6 6 7 7 7 8 9 10 10 10 11 12 12 13 13 14 14 15 15 16 16 16 17

GEFSMA_500_meanwind_126.txt.gz
Wind_Speed
21 21 22 22 22 22 22 22 22 22 22 22 22 22 22 20 21 21 22 22 22 22 22 22 21 22 21 21 20 20 20 20 20 18 18 18 17 17 17 17 17 17 17
23 23 23 23 23 24 24 23 24 24 24 24 23 23 23 23 22 23 23 23 24 24 24 24 23 22 23 23 23 23 22 22 22 21 20 20 20 20 19 19 19 19 19
24 24 24 24 25 25 25 25 26 26 26 25 25 24 25 25 24 24 24 24 24 24 25 25 24 24 24 25 25 24 24 24 24 23 23 22 22 22 22 21 21 21 22
24 25 25 25 25 26 26 27 27 28 27 26 26 26 26 26 25 25 26 27 26 26 26 26 26 25 25 26 26 26 26 25 25 25 25 25 24 24 24 24 24 24 24
23 24 24 25 25 26 27 28 28 28 28 27 27 26 26 26 26 26 26 27 27 28 27 27 26 25 25 26 26 26 27 26 26 26 26 27 27 26 26 26 26 26 26
22 22 23 24 26 27 27 28 28 28 28 28 27 27 27 27 27 27 27 27 28 28 28 27 27 27 27 27 27 28 28 28 28 27 27 27 28 28 28 28 28 28 28
21 22 23 24 26 27 28 29 29 29 28 28 28 28 28 28 28 28 28 28 29 29 28 28 29 29 28 28 28 28 28 29 28 28 28 29 29 29 30 30 30 30 31
22 23 23 24 25 27 28 28 28 28 29 29 29 29 29 28 28 28 28 28 28 28 29 29 30 29 29 28 29 28 29 30 29 28 29 30 30 31 31 31 32 32 33
24 24 25 25 26 27 28 28 28 28 29 29 29 29 29 28 28 28 29 28 28 28 28 29 29 29 28 29 30 29 30 30 30 30 31 31 32 32 33 34 34 35 36
25 25 25 26 27 27 28 28 29 29 29 29 30 30 29 28 28 28 29 29 28 28 28 28 28 28 29 29 30 31 31 32 32 32 32 32 33 33 33 34 35 36 37
25 25 26 26 27 27 27 28 28 28 29 29 30 30 30 30 29 28 28 29 29 28 28 28 29 29 29 29 30 32 32 33 33 32 33 33 35 35 35 36 36 37 38
26 26 27 27 27 27 27 27 27 27 28 28 29 29 30 30 30 29 28 29 29 28 28 28 29 29 30 31 31 33 33 33 33 33 33 34 35 36 36 36 37 38 39
27 27 27 27 27 26 26 26 26 26 26 27 28 28 29 29 29 28 28 28 28 29 29 29 29 29 30 31 32 33 34 35 35 35 36 36 36 36 37 37 38 39 39
28 28 27 27 27 26 26 26 26 26 26 26 26 27 27 27 28 27 27 27 27 27 28 28 29 30 30 30 31 32 33 34 35 35 35 35 35 36 36 37 38 38 38
27 28 28 28 27 27 26 26 26 26 25 25 25 25 25 26 26 27 26 27 27 27 27 26 28 29 30 31 31 32 32 33 34 34 34 34 35 36 36 36 36 37 38
27 27 27 27 26 26 26 25 25 25 25 24 24 24 24 23 24 24 25 24 24 25 25 24 25 26 28 28 29 30 31 31 32 33 33 33 34 34 34 35 36 38 39
26 25 25 25 25 25 25 25 25 25 24 24 24 24 23 23 22 22 22 22 22 23 23 23 24 25 25 26 27 29 30 30 30 31 32 32 32 33 33 33 34 35 36
24 24 24 24 24 24 24 25 24 24 24 24 24 23 23 22 22 21 21 21 22 22 22 21 22 22 23 24 25 26 27 28 29 29 29 30 30 31 31 32 32 32 34
22 22 22 22 22 22 22 23 23 23 23 23 23 22 21 21 21 21 20 20 20 21 21 22 21 21 21 22 23 25 25 26 28 28 29 29 29 30 31 31 31 32 33
22 21 20 19 19 20 20 20 20 20 21 21 21 20 20 20 20 20 20 20 20 20 21 21 21 21 21 22 23 23 24 24 25 26 27 28 28 29 29 29 30 31 31
19 19 18 18 18 18 17 17 17 17 18 19 19 19 19 19 19 19 19 19 19 20 19 20 20 20 20 19 20 20 21 22 22 24 24 25 25 26 26 27 28 28 29
17 16 16 17 16 16 16 16 15 16 17 16 16 16 16 17 17 17 17 17 17 17 18 18 18 17 17 17 18 18 19 20 20 21 21 22 22 23 24 24 25 25 25
15 15 15 15 15 14 14 13 13 13 13 13 13 14 14 13 14 15 15 15 15 16 17 16 15 15 15 16 16 17 17 18 18 18 19 20 21 21 21 21 22 22 22
14 13 13 13 13 12 11 11 10 10 9 9 9 10 10 10 10 11 11 12 13 14 13 13 13 13 14 14 14 15 15 16 17 17 17 17 18 19 19 19 19 20 20
11 10 9 9 9 9 8 8 8 7 7 6 5 5 5 6 6 7 7 7 7 8 8 9 10 10 11 10 11 11 12 12 13 14 14 14 15 16 16 17 17 18 19
8 7 7 7 6 5 5 5 5 4 3 2 1 1 1 1 2 2 2 2 2 3 4 4 5 6 7 7 8 9 9 10 10 11 11 12 13 14 15 16 16 17 18